DLH12A EDDF-EDDM

Flight info

Callsign DLH12A
Flight time N/A
Altitude 23000
Route CINDY8S/18 CINDY Z74 HAREM T104 ROKIL ROKIL1A
Aircraft A359/H-SDE2E3GHIJ3J4J5LM1ORWXY/LB1D1

Departure

Time 2026-05-04 18:19
Airport Frankfurt Main Airport (EDDF)

Arrival

Time N/A
Airport Munich Airport (EDDM)
Time Latitude Longitude Altitude Speed Heading
2026-05-04 17:37 50.04761 8.56385 367 ft 0 kts 340°
2026-05-04 18:08 50.04744 8.56395 368 ft 4 kts 338°
2026-05-04 18:08 50.04719 8.56412 370 ft 4 kts 334°
2026-05-04 18:08 50.04696 8.56432 366 ft 4 kts 323°
2026-05-04 18:08 50.04677 8.56457 366 ft 4 kts 303°
2026-05-04 18:09 50.04656 8.56502 369 ft 4 kts 350°
2026-05-04 18:09 50.04643 8.56503 371 ft 4 kts 12°
2026-05-04 18:10 50.04658 8.56492 370 ft 4 kts 327°
2026-05-04 18:10 50.04667 8.56465 369 ft 4 kts 288°
2026-05-04 18:10 50.04665 8.56429 366 ft 4 kts 258°
2026-05-04 18:10 50.04660 8.56408 366 ft 3 kts 250°
2026-05-04 18:11 50.04659 8.56404 367 ft 0 kts 250°
2026-05-04 18:13 50.04656 8.56390 365 ft 8 kts 250°
2026-05-04 18:14 50.04622 8.56250 365 ft 17 kts 250°
2026-05-04 18:14 50.04578 8.56063 366 ft 20 kts 250°
2026-05-04 18:14 50.04478 8.55935 368 ft 19 kts 199°
2026-05-04 18:15 50.04232 8.55891 364 ft 20 kts 237°
2026-05-04 18:15 50.04115 8.55425 362 ft 26 kts 250°
2026-05-04 18:15 50.04051 8.55159 366 ft 26 kts 249°
2026-05-04 18:16 50.03987 8.54894 361 ft 28 kts 250°
2026-05-04 18:16 50.03916 8.54598 359 ft 30 kts 250°
2026-05-04 18:16 50.03826 8.54293 360 ft 32 kts 238°
2026-05-04 18:17 50.03661 8.53648 355 ft 32 kts 248°
2026-05-04 18:17 50.03578 8.53312 354 ft 35 kts 250°
2026-05-04 18:17 50.03403 8.52645 353 ft 32 kts 223°
2026-05-04 18:18 50.03189 8.52599 344 ft 34 kts 180°
2026-05-04 18:18 50.02726 8.52600 348 ft 108 kts 179°
2026-05-04 18:18 50.01726 8.52593 361 ft 177 kts 182°
2026-05-04 18:18 50.00395 8.52595 943 ft 195 kts 180°
2026-05-04 18:19 49.97544 8.52696 2662 ft 225 kts 171°
2026-05-04 18:19 49.96164 8.53823 3651 ft 236 kts 135°
2026-05-04 18:19 49.95219 8.55962 4400 ft 249 kts 120°
2026-05-04 18:20 49.94463 8.58224 4867 ft 237 kts 117°
2026-05-04 18:20 49.93978 8.60658 4994 ft 239 kts 100°
2026-05-04 18:20 49.93834 8.63373 5100 ft 263 kts 94°
2026-05-04 18:20 49.93749 8.66265 5748 ft 270 kts 95°
2026-05-04 18:21 49.93352 8.69071 6533 ft 268 kts 117°
2026-05-04 18:21 49.92213 8.71328 7255 ft 267 kts 141°
2026-05-04 18:21 49.92122 8.71447 7290 ft 267 kts 142°
2026-05-04 18:21 49.90718 8.73058 8005 ft 269 kts 147°
2026-05-04 18:22 49.90219 8.73598 8222 ft 270 kts 147°
2026-05-04 18:22 49.88820 8.75245 8911 ft 276 kts 140°
2026-05-04 18:22 49.87624 8.77623 9671 ft 284 kts 126°
2026-05-04 18:22 49.86639 8.80260 10367 ft 290 kts 123°
2026-05-04 18:23 49.85616 8.83120 10710 ft 308 kts 122°
2026-05-04 18:23 49.84561 8.86053 11009 ft 326 kts 122°
2026-05-04 18:23 49.83432 8.89180 11374 ft 338 kts 122°
2026-05-04 18:23 49.82275 8.92386 11934 ft 344 kts 122°
2026-05-04 18:24 49.81097 8.95657 12522 ft 349 kts 122°
2026-05-04 18:24 49.79906 8.98958 13092 ft 354 kts 122°
2026-05-04 18:24 49.78735 9.02189 13706 ft 357 kts 122°
2026-05-04 18:24 49.77515 9.05550 14231 ft 360 kts 122°
2026-05-04 18:25 49.76355 9.09007 14770 ft 366 kts 115°
2026-05-04 18:25 49.75603 9.12619 15295 ft 370 kts 107°
2026-05-04 18:25 49.74921 9.16533 15838 ft 373 kts 110°
2026-05-04 18:25 49.73818 9.20152 16379 ft 372 kts 124°
2026-05-04 18:26 49.72329 9.23411 16919 ft 373 kts 130°
2026-05-04 18:26 49.70664 9.26504 17468 ft 376 kts 133°
2026-05-04 18:26 49.68908 9.29523 18010 ft 378 kts 134°
2026-05-04 18:26 49.67116 9.32525 18485 ft 382 kts 135°
2026-05-04 18:27 49.65309 9.35539 18949 ft 384 kts 135°
2026-05-04 18:27 49.64137 9.37513 19250 ft 386 kts 135°
2026-05-04 18:27 49.62847 9.39707 19593 ft 387 kts 134°
2026-05-04 18:27 49.61048 9.42811 20047 ft 390 kts 134°
2026-05-04 18:28 49.59249 9.45957 20505 ft 393 kts 134°
2026-05-04 18:28 49.57442 9.49131 20965 ft 395 kts 134°
2026-05-04 18:28 49.55621 9.52336 21410 ft 398 kts 134°
2026-05-04 18:28 49.53798 9.55541 21852 ft 400 kts 134°
2026-05-04 18:29 49.51976 9.58740 22266 ft 403 kts 134°
2026-05-04 18:29 49.50116 9.61997 22720 ft 406 kts 134°
2026-05-04 18:29 49.48256 9.65248 22945 ft 405 kts 134°
2026-05-04 18:29 49.46401 9.68488 22973 ft 402 kts 134°
2026-05-04 18:30 49.42697 9.74939 22967 ft 402 kts 135°
2026-05-04 18:30 49.40853 9.78143 22966 ft 402 kts 135°
2026-05-04 18:30 49.38992 9.81373 22969 ft 403 kts 135°
2026-05-04 18:31 49.37139 9.84590 22960 ft 403 kts 135°
2026-05-04 18:31 49.35276 9.87815 22962 ft 403 kts 135°
2026-05-04 18:31 49.33415 9.91021 22964 ft 403 kts 135°
2026-05-04 18:31 49.31573 9.94192 22965 ft 403 kts 135°
2026-05-04 18:32 49.29708 9.97396 22963 ft 403 kts 135°
2026-05-04 18:32 49.27838 10.00609 22966 ft 404 kts 135°
2026-05-04 18:32 49.25972 10.03811 22970 ft 404 kts 135°
2026-05-04 18:32 49.24102 10.07020 22968 ft 404 kts 135°
2026-05-04 18:33 49.22231 10.10225 22970 ft 404 kts 135°
2026-05-04 18:33 49.21788 10.10983 22971 ft 404 kts 135°
2026-05-04 18:33 49.19791 10.14399 22974 ft 404 kts 135°
2026-05-04 18:33 49.17923 10.17602 22913 ft 405 kts 135°
2026-05-04 18:34 49.15988 10.20900 22764 ft 428 kts 135°
2026-05-04 18:34 49.13974 10.24324 22475 ft 436 kts 135°
2026-05-04 18:34 49.11930 10.27747 22203 ft 436 kts 136°
2026-05-04 18:34 49.09882 10.31067 21950 ft 434 kts 136°
2026-05-04 18:35 49.08735 10.32899 21804 ft 432 kts 136°
2026-05-04 18:35 49.06659 10.36193 21547 ft 430 kts 136°
2026-05-04 18:35 49.04599 10.39457 21291 ft 429 kts 136°
2026-05-04 18:35 49.02524 10.42750 21038 ft 427 kts 136°
2026-05-04 18:36 49.00472 10.46016 20785 ft 426 kts 136°
2026-05-04 18:36 48.98429 10.49278 20535 ft 425 kts 136°
2026-05-04 18:36 48.96395 10.52520 20282 ft 423 kts 136°
2026-05-04 18:36 48.94363 10.55754 20029 ft 422 kts 136°
2026-05-04 18:37 48.93022 10.57893 19872 ft 421 kts 136°
2026-05-04 18:37 48.90313 10.62200 19556 ft 420 kts 136°
2026-05-04 18:37 48.88328 10.65357 19317 ft 419 kts 136°
2026-05-04 18:37 48.86327 10.68556 19102 ft 417 kts 136°
2026-05-04 18:38 48.84339 10.71760 18909 ft 416 kts 135°
2026-05-04 18:38 48.82373 10.74964 18719 ft 414 kts 135°
2026-05-04 18:38 48.80437 10.78184 18552 ft 412 kts 134°